Terug naar catalogus

ARVAKER-2

ActiefWetenschapSSO
NORAD 64567·PAYLOAD·🇳🇴 Norway

Gelanceerd Jun 23, 2025 vanaf Vandenberg Space Force Base

Loading…

Volgende Passages (komende 24 uur)

TLE

VersSource: Space-Track

Epoch: Sep 14, 2026, 14:20 UTC

1 64567U 25135AR  26257.59753688  .00001860  00000-0  18054-3 0  9993
2 64567  97.7810  10.8130 0002192  56.3990 303.7438 14.93851306 67226

Volg ARVAKER-2 in realtime met AllMySat

Download on the App Store